Temp
16 14 14 17 17 18 18 18 17 19 21 19 18 19 19 20 20 20 20 20 21 21 22 25 26 26 25 26 27 26 26 25 21 19 19 19 19 19 19 18 18 18 17 16
14 13 17 18 19 18 18 17 16 18 20 19 17 17 18 19 20 20 20 20 21 21 21 22 24 25 25 25 26 26 25 24 23 20 19 18 18 18 17 16 16 16 15 15
15 16 17 17 17 16 16 16 16 17 18 17 17 16 17 21 20 20 20 21 21 21 20 20 21 24 24 24 24 25 25 24 23 21 18 18 17 16 15 15 14 14 15 15
16 17 16 16 16 16 15 17 17 17 15 14 16 13 16 19 20 21 20 19 19 20 20 21 21 21 23 23 24 24 24 24 23 20 17 17 15 14 13 13 12 13 14 14
15 15 15 14 16 16 16 16 15 15 14 12 14 12 15 18 18 20 20 19 19 19 19 20 19 21 23 23 23 24 24 24 20 19 16 15 14 14 12 11 11 13 13 13
16 16 16 16 16 16 15 15 14 14 13 9 12 14 16 18 19 20 21 19 19 20 20 20 22 23 22 23 23 22 24 22 19 18 16 15 14 13 11 10 11 11 12 12
14 14 15 15 14 15 15 13 10 10 10 10 17 15 16 18 19 20 19 18 19 19 18 19 19 18 20 22 22 22 22 21 18 17 16 16 14 13 11 10 10 10 11 11
11 12 14 14 14 13 13 13 11 13 11 13 16 13 16 20 20 20 20 19 18 18 18 20 19 17 19 20 22 21 21 19 17 16 16 16 15 12 11 10 10 10 10 10
13 13 15 14 15 14 13 11 14 12 12 10 13 16 18 19 19 19 19 19 18 18 18 20 19 18 19 19 20 21 20 19 16 15 16 16 14 11 10 10 10 10 10 10
15 12 15 14 15 14 14 15 11 10 8 11 14 15 16 17 17 18 17 18 18 18 18 17 17 17 18 19 20 20 19 18 17 15 15 13 12 11 11 10 10 10 10 10
15 13 13 12 12 13 12 12 11 12 11 10 12 14 18 16 18 18 17 18 17 18 17 16 16 17 17 17 20 20 19 18 15 15 13 11 11 11 10 11 11 10 10 9
15 14 10 11 14 14 14 12 12 11 10 11 11 13 17 17 17 17 16 17 18 17 17 16 15 15 16 17 19 19 19 15 12 12 11 11 11 11 11 10 10 10 9 8
15 11 9 11 14 15 14 14 14 13 12 11 11 13 18 17 17 17 17 16 16 17 17 14 14 14 15 18 19 18 15 11 11 11 11 11 11 10 10 9 9 9 8 8
15 14 10 10 12 13 10 12 13 13 11 12 13 13 15 16 17 14 13 14 15 16 14 14 14 13 13 17 14 12 10 10 10 10 10 10 10 9 9 8 8 8 8 7
14 10 10 12 13 13 12 12 13 11 11 11 12 12 13 14 14 15 15 13 14 13 13 14 13 13 15 12 12 10 9 9 9 9 9 9 9 8 8 7 7 7 6 6
13 10 10 9 12 12 11 12 13 14 13 12 12 12 13 13 14 14 11 11 12 12 13 14 14 13 12 11 10 9 9 8 9 9 8 7 7 6 6 6 6 6 5 5
12 10 10 10 13 12 13 14 14 14 13 12 12 13 14 14 15 13 11 10 11 12 13 14 13 10 9 8 9 9 9 8 8 7 6 5 5 4 5 5 5 5 4 4
11 10 10 11 10 12 16 16 15 14 14 15 14 14 13 14 11 11 11 11 11 12 13 13 10 8 8 8 8 6 5 4 3 2 2 2 2 3 4 4 4 4 4 3
12 11 11 11 10 14 17 16 15 13 14 14 13 13 14 12 12 9 9 11 11 12 10 8 7 7 6 6 5 5 4 3 3 2 1 2 2 4 4 4 4 3 3 3
12 12 11 12 12 13 16 16 14 13 13 14 13 12 14 13 12 9 8 9 9 9 8 7 6 4 3 3 3 3 2 3 2 2 2 3 4 4 3 3 3 3 2 2
11 11 11 11 12 13 16 15 15 14 14 14 14 12 12 11 9 7 7 6 6 6 6 5 5 4 3 2 2 1 1 0 1 2 3 3 3 3 3 2 2 2 2 1
12 12 12 11 11 11 17 16 15 15 15 15 14 12 10 9 8 8 7 5 5 5 5 4 3 3 3 3 3 4 4 3 3 3 3 2 2 2 2 2 1 1 1 1
14 14 14 13 13 16 17 15 17 14 13 13 13 10 8 7 7 6 5 6 6 7 7 7 6 5 5 4 4 3 3 3 2 2 1 2 2 1 1 1 1 0 0 0
15 16 14 15 18 16 16 15 13 12 12 12 13 10 9 6 6 6 6 5 6 6 6 5 4 3 3 3 3 2 2 2 2 1 1 1 1 1 1 0 0 -0 -1 -1
14 15 14 14 15 16 14 12 12 11 11 11 11 11 8 7 6 7 6 5 6 6 5 4 3 3 3 3 2 2 2 2 1 1 1 1 0 0 -0 -1 -1 -1 -2 -2
14 14 14 14 16 15 13 12 13 11 10 9 8 8 8 7 6 6 5 5 4 3 3 3 3 2 2 2 2 2 2 2 1 1 0 0 -0 -0 -1 -1 -1 -1 -2 -2
Height
761 769 768 757 758 754 755 761 766 752 741 749 750 747 742 736 732 728 727 727 725 722 718 717 717 718 721 723 725 726 731 736 740 746 752 758 760 764 770 773 776 780 785 789
770 770 755 749 747 753 756 764 767 757 746 749 751 746 738 729 722 721 720 720 718 718 716 714 714 715 716 718 720 722 725 730 735 740 746 753 757 762 765 769 775 778 782 786
761 754 751 755 754 761 764 767 766 765 755 753 752 742 730 708 707 709 709 710 711 711 712 712 711 709 710 712 715 717 720 724 730 734 743 749 755 759 764 768 773 779 783 784
756 751 754 758 757 758 768 758 758 758 770 776 757 770 731 715 707 702 704 705 704 704 703 704 705 705 704 705 710 713 717 720 723 728 735 739 743 750 756 763 770 777 781 784
757 756 758 762 757 756 765 764 767 768 775 783 768 780 724 709 713 704 703 701 698 697 697 698 698 698 700 703 703 707 712 715 715 721 729 737 742 749 754 762 770 776 779 782
750 753 754 756 754 758 765 767 772 775 781 806 767 759 711 711 705 701 697 699 697 694 694 694 692 694 695 696 697 701 703 708 711 718 726 732 737 743 750 758 767 773 776 780
757 757 757 757 763 764 767 777 795 797 799 789 735 749 714 703 700 700 700 702 698 694 693 693 693 693 692 690 691 694 698 700 705 714 724 728 732 737 744 751 759 765 772 777
769 762 755 757 762 767 772 774 788 772 776 758 743 746 715 690 688 686 687 691 693 693 690 689 690 690 689 689 687 689 692 696 700 708 719 725 727 734 742 749 756 762 767 774
756 756 748 755 758 762 771 784 767 775 769 782 744 715 699 690 687 684 684 685 689 689 686 686 687 688 687 685 684 684 688 692 697 705 715 723 724 730 739 748 756 761 765 772
746 761 751 756 758 759 762 760 778 786 807 765 727 719 712 699 696 690 687 685 687 686 686 685 686 686 685 682 679 680 685 690 694 703 712 720 723 728 737 747 754 758 764 771
746 754 763 763 763 758 765 768 773 773 774 778 746 720 690 698 692 689 689 684 688 687 686 685 684 684 683 678 673 676 681 686 691 700 708 717 722 728 737 747 752 757 763 770
745 752 775 761 749 750 751 759 762 773 775 762 754 714 690 690 692 691 691 684 682 684 684 684 684 684 679 672 668 673 680 685 689 698 708 717 723 729 738 745 751 757 763 770
743 761 775 760 748 744 748 748 748 752 757 755 757 708 681 683 687 688 688 687 683 680 679 683 683 682 676 668 667 672 680 687 690 700 709 717 724 731 738 745 751 758 764 772
740 746 763 764 753 749 765 751 744 748 752 735 721 700 694 690 686 692 694 692 687 682 683 683 682 680 673 665 669 682 686 690 696 704 711 719 726 733 739 746 752 758 766 772
744 764 758 747 742 743 744 741 738 744 740 736 710 712 694 693 689 683 683 685 686 683 682 682 681 679 673 675 678 687 692 697 702 711 715 721 728 734 740 746 754 761 767 772
745 759 758 758 737 736 739 731 727 721 719 719 712 702 693 688 681 680 686 687 686 685 683 680 678 679 677 681 686 691 697 704 710 715 719 725 730 737 743 749 757 762 768 772
748 756 758 754 728 732 727 716 717 715 716 714 707 695 687 681 678 682 687 688 686 684 680 676 677 683 685 688 692 698 704 712 716 719 726 732 738 744 746 752 759 763 769 773
748 759 760 748 743 734 702 699 703 708 704 698 693 689 686 679 684 685 686 684 682 678 673 676 684 689 692 695 701 706 713 720 722 725 729 734 738 751 754 757 764 766 770 773
742 751 750 747 749 718 698 699 702 708 702 696 696 690 682 683 683 692 691 680 680 677 682 687 691 696 700 705 710 715 721 726 731 731 738 747 752 748 757 761 766 769 770 773
739 743 747 738 739 725 699 697 699 704 703 694 693 691 684 683 682 699 698 691 689 689 692 695 700 704 708 715 718 721 728 732 736 740 746 746 751 754 759 766 768 769 772 772
737 738 741 742 740 723 696 695 698 705 703 690 689 692 690 693 700 705 702 702 701 701 702 705 709 713 718 721 721 722 725 730 737 741 750 754 755 760 765 767 768 769 771 775
727 731 733 737 738 735 690 693 698 694 689 688 689 693 698 700 704 706 707 708 708 708 710 714 715 720 725 729 731 733 736 740 745 747 753 760 761 763 763 766 770 772 775 777
713 709 710 719 712 691 685 686 683 687 691 690 690 695 702 708 708 710 714 712 712 714 715 718 722 725 729 735 737 735 741 744 749 754 759 758 757 762 768 770 772 774 775 777
701 697 705 701 685 687 684 684 688 690 691 690 690 695 701 707 710 711 714 716 718 719 720 723 726 731 736 740 742 744 747 750 752 753 757 762 766 769 771 772 773 775 776 777
704 700 701 699 690 683 688 690 691 692 692 692 692 694 701 705 709 711 716 719 721 723 726 729 732 734 739 742 744 747 749 752 755 759 763 767 769 770 772 773 775 776 777 777
699 698 700 697 685 685 691 691 691 694 695 697 698 701 705 709 712 714 717 721 725 728 731 734 737 739 743 746 749 752 755 757 759 763 766 768 770 772 773 774 775 776 777 777
Wind_Speed
5 4 8 11 12 12 10 7 11 10 9 8 9 14 13 13 13 15 11 11 11 13 13 21 20 24 21 31 27 30 27 27 30 31 32 28 29 29 26 29 30 30 24 24
3 8 9 7 4 3 7 7 10 11 10 6 10 17 16 21 19 16 15 13 14 12 11 11 22 20 27 23 26 25 24 34 31 32 31 26 30 29 28 25 24 25 29 28
5 2 10 11 5 4 7 7 9 11 10 11 12 14 10 6 16 17 19 19 15 14 13 11 12 22 24 30 25 20 24 30 34 27 28 27 28 27 23 24 27 27 30 27
9 5 3 4 7 5 6 5 6 7 5 4 7 6 7 9 7 6 8 9 10 10 12 14 15 16 19 29 34 28 26 28 33 36 36 40 31 26 21 31 28 30 30 27
1 3 5 5 4 6 3 5 5 5 6 7 4 4 7 9 9 6 6 8 9 9 8 9 10 19 27 26 31 37 32 28 33 38 33 34 26 22 28 28 30 32 30 27
4 5 1 3 3 2 6 2 2 4 1 4 10 10 13 6 10 6 2 8 9 6 8 8 8 8 16 30 32 28 35 26 34 37 32 35 30 29 32 33 31 32 31 28
4 9 4 2 1 3 5 2 1 2 2 7 1 8 16 12 14 12 4 8 9 8 8 5 6 4 13 19 30 27 31 29 35 38 33 30 31 37 38 39 35 34 33 30
5 3 14 9 8 6 9 6 3 5 3 4 5 7 5 1 6 6 6 8 8 9 8 3 5 6 13 18 20 23 30 26 35 37 33 29 32 36 36 35 32 31 32 32
5 1 11 12 8 7 6 6 3 5 6 5 5 5 11 14 17 15 7 8 8 8 6 6 3 6 15 20 25 24 28 29 32 33 31 25 36 36 36 31 33 30 31 31
3 2 2 6 2 6 6 3 2 1 3 6 5 7 7 9 6 9 9 2 5 3 6 5 5 6 19 24 23 22 30 30 30 31 29 29 31 37 37 34 31 31 31 30
5 0 4 5 8 9 5 7 2 3 3 3 6 4 5 7 5 4 6 3 5 4 6 6 6 10 22 28 18 23 28 26 30 29 31 31 33 35 34 31 31 32 33 31
7 2 3 10 8 13 9 8 13 3 6 4 5 14 19 16 5 7 9 7 2 6 3 4 6 10 20 20 14 21 26 26 34 34 32 31 32 33 32 30 32 33 31 28
8 3 2 2 3 7 6 9 10 14 9 16 9 12 9 15 11 7 12 10 7 7 2 4 5 8 12 5 11 13 23 27 32 32 31 31 32 32 31 32 32 30 29 26
9 3 5 3 2 2 4 6 9 9 5 11 21 30 24 20 18 4 6 15 15 4 6 4 2 8 12 3 18 23 23 29 33 30 32 31 30 31 32 32 32 31 28 25
2 3 4 7 13 12 14 17 16 16 18 13 25 25 28 22 21 19 8 7 8 6 6 7 2 8 2 15 22 23 23 27 30 27 29 29 31 31 35 34 31 28 26 23
3 3 3 5 15 16 15 16 18 18 18 18 21 25 19 17 14 9 6 7 7 7 10 9 2 4 10 16 19 24 23 24 26 28 29 31 32 33 33 33 31 28 24 20
5 2 2 4 10 12 6 5 5 9 11 11 11 18 17 14 9 2 3 5 8 11 12 4 4 10 12 19 20 20 22 25 26 29 28 28 28 27 30 31 28 26 22 18
5 4 2 4 9 2 3 6 5 6 12 12 10 14 13 5 6 9 9 8 10 10 4 6 12 14 17 21 22 25 27 26 28 29 31 29 26 23 26 27 25 22 19 15
6 3 2 2 2 8 4 4 2 1 5 6 8 9 7 6 3 5 12 10 5 8 13 12 20 22 23 23 26 29 27 26 25 27 25 25 25 25 26 25 22 18 16 12
8 8 2 1 3 3 3 3 5 3 3 2 4 8 6 6 5 3 10 10 13 14 17 18 23 24 26 23 29 31 25 25 22 24 22 24 24 27 26 22 19 16 13 10
3 3 9 7 3 7 6 4 6 2 4 4 4 4 5 3 3 4 5 11 12 15 19 22 22 20 21 23 25 26 27 24 23 27 24 25 25 25 21 19 15 12 11 8
7 6 3 3 4 7 1 1 2 3 3 4 4 3 5 7 8 8 8 9 10 10 14 20 20 19 20 19 22 24 25 26 27 31 29 26 23 21 18 16 13 11 8 6
3 5 4 6 6 6 4 7 1 3 2 5 2 6 9 5 6 9 7 8 8 12 12 17 20 23 23 22 21 26 26 29 28 26 24 24 22 19 14 14 11 10 7 6
4 5 2 2 4 5 4 5 5 4 3 2 2 8 7 9 7 9 10 6 7 11 14 19 20 21 21 23 24 25 25 24 26 27 24 21 19 16 13 11 9 7 6 5
2 2 4 5 9 3 5 5 4 4 3 5 5 5 8 9 8 10 8 9 8 12 16 17 19 21 22 22 24 25 24 25 26 24 21 18 15 13 11 9 7 6 5 7
4 5 4 4 2 2 2 4 2 5 5 6 8 8 7 7 9 10 9 9 13 15 18 19 20 22 21 23 24 22 20 22 24 21 17 14 13 11 9 7 6 4 5 7
Wind_Direction
187 183 204 201 208 250 302 310 304 311 320 330 276 273 266 268 262 261 249 247 249 247 256 265 248 242 249 233 239 206 204 191 181 180 183 198 191 180 180 177 176 186 181 163
138 235 219 246 273 300 260 273 277 279 272 301 301 283 278 259 256 249 249 246 245 251 257 256 257 242 231 251 242 213 203 196 193 184 190 187 177 176 171 179 181 182 170 169
198 64 199 237 239 212 260 257 274 290 317 315 280 281 237 275 231 236 240 244 253 253 254 251 250 245 227 231 245 218 210 198 200 193 176 172 167 159 162 175 180 176 173 170
231 208 162 194 214 208 264 355 330 295 338 260 26 291 288 274 271 187 214 218 221 230 233 237 243 263 248 216 228 239 223 215 195 181 173 176 172 161 175 182 176 169 172 166
191 193 202 206 226 208 223 59 360 324 300 353 228 240 259 222 246 248 298 262 233 236 222 224 224 236 251 255 218 220 226 209 182 179 176 179 166 171 175 174 169 168 164 166
190 39 303 209 186 263 59 86 245 287 250 256 206 198 274 208 237 245 58 324 316 268 238 256 241 267 239 241 242 225 211 200 184 186 179 182 170 166 162 162 163 162 162 162
248 229 152 268 127 164 220 133 281 262 208 232 50 214 244 310 293 286 325 334 283 287 308 311 323 320 269 245 231 227 205 186 176 184 184 181 171 176 170 164 164 160 159 161
179 205 194 169 211 178 197 189 206 269 237 288 298 244 247 262 303 247 286 258 257 282 264 283 355 330 321 282 227 225 198 181 172 176 183 186 178 173 171 167 165 160 160 162
163 275 145 158 202 237 154 211 309 315 272 273 223 280 297 266 269 269 259 261 219 256 274 236 322 324 318 308 236 219 190 179 170 176 179 184 171 168 165 165 164 158 159 165
31 132 211 143 203 230 225 172 130 140 259 267 235 266 256 322 332 325 300 16 22 341 359 346 334 327 305 293 248 201 190 184 168 165 170 171 158 162 164 161 160 158 163 164
195 186 122 84 206 194 189 236 204 343 236 250 308 229 0 338 330 335 323 341 333 324 309 307 322 325 299 289 222 201 190 182 155 160 154 152 150 157 155 159 155 154 160 165
197 151 221 216 222 213 199 196 211 222 232 229 282 279 260 259 338 303 285 240 258 270 292 324 348 304 289 268 184 185 198 151 141 144 143 147 146 147 152 149 146 155 154 158
172 175 253 283 163 218 215 229 233 230 268 248 267 250 310 316 310 301 290 306 269 293 342 24 333 298 291 206 188 180 140 130 136 143 142 143 143 144 139 138 145 146 146 150
160 187 209 219 184 59 232 235 248 257 255 266 246 278 278 283 279 27 284 259 285 318 26 349 311 288 276 209 97 114 116 126 133 137 140 139 138 135 133 135 137 144 148 146
154 232 272 263 277 279 273 273 267 249 252 258 281 281 285 290 289 291 297 25 349 2 11 328 300 285 317 86 98 112 112 120 131 135 132 133 132 130 132 132 140 142 140 143
184 268 20 279 255 247 257 259 255 261 264 264 268 271 280 283 290 277 36 0 331 333 314 301 213 10 90 97 97 109 116 126 134 132 127 127 123 123 124 129 134 135 139 136
158 147 359 261 326 313 267 236 231 271 255 254 272 281 304 284 294 58 327 288 301 293 289 226 128 101 89 95 105 111 122 131 127 117 111 110 112 122 124 132 135 132 132 131
158 148 168 293 314 277 119 168 200 253 269 272 276 295 304 315 30 13 359 322 295 276 250 97 98 95 97 103 103 103 105 106 104 101 104 115 122 129 123 127 132 129 130 127
172 172 226 268 267 269 292 133 236 205 299 357 309 319 340 64 30 42 352 325 335 64 75 89 93 99 91 101 109 107 104 103 106 113 117 126 131 118 124 126 127 131 124 119
198 217 232 321 314 285 99 134 128 147 266 318 336 339 1 352 357 15 359 35 72 74 83 94 103 102 103 103 108 105 106 112 114 116 121 120 126 127 125 131 128 126 127 108
177 190 222 224 256 278 279 134 148 316 286 350 331 332 326 47 54 101 37 60 62 77 84 90 94 100 112 117 119 118 119 114 119 117 121 127 129 128 129 123 116 106 99 97
173 183 189 168 223 264 218 212 230 259 314 339 332 78 97 111 97 83 72 93 85 79 102 101 104 106 112 125 129 119 113 122 125 122 125 127 124 120 112 107 107 101 101 100
217 202 170 189 214 245 239 211 232 85 299 301 98 115 115 106 106 111 77 66 95 128 122 110 103 95 102 115 116 110 114 122 121 119 119 112 102 102 111 111 108 100 90 76
238 246 237 348 287 252 16 37 67 55 345 6 92 131 129 137 133 116 122 104 95 95 96 100 102 101 99 105 110 112 117 120 118 110 107 113 115 115 110 106 98 90 83 59
261 24 226 260 283 304 70 78 46 60 52 87 90 109 132 137 135 125 114 115 112 100 96 102 106 105 106 108 106 113 120 122 116 115 116 113 111 108 103 92 87 82 55 19
215 208 197 230 167 163 98 93 38 106 97 91 97 81 85 109 128 122 115 108 105 107 110 106 105 104 105 104 108 114 121 123 119 114 112 108 106 101 92 77 60 33 10 354